Content
SEND FEEDBACK

Daily
Averages
Monthly
Summary
United States of America

ATHENS, WISCONSIN


Home > North America > United States > Wisconsin
Elevation: 1420 feet     Latitude: 45 09N     Longitude: 090 05W

WEATHER
 
SELECT A DAY
Number of Records: 416,946;   Date Range: 8/5/97 - 7/29/14
 
SHARE

PRINT THIS DATA

[ ← Previous Day ]
WEATHER ALMANAC - FEBRUARY 13, 2013
[ Next Day → ]
[ °C ]   °F
Weather ElementAverageHighLow
Temperature26.2 °F32 °F (4:55 pm)17.6 °F (12:55 am)
Dewpoint23 °F28.4 °F (4:55 pm)15.8 °F (12:35 am)
Humidity88 %93 % (12:55 am)75 % (12:55 pm)
Barometer29.63 in29.72 in (12:35 am)29.56 in (11:35 pm)
Wind Speed4.2 mph9.2 mph (3:15 pm)
Weather ElementAverage
Visibility5.8 mi
Wind DirectionSSW (194.5 °)

Weather ElementTotal
Precipitation0.96 in
Heating Degree Days40.2 (Base 65)
Averaged from 71 records on February 13, 2013
WEATHER CONDITIONS BREAKOUT
WIND DIRECTION BREAKOUT
WEATHER BY HOUR - FEBRUARY 13, 2013
[ °C ]   °F
Local TimeTemperatureDewpointHumidityBarometerVisibilityWind DirectionWind SpeedGust SpeedPrecipitationEventsConditions
12:35 AM19.4 °F15.8 °F86 %29.72 in2.5 miCalmClear
12:55 AM17.6 °F15.8 °F93 %29.71 in3.0 miSW (230°)4.6 mph0.01 inClear
1:15 AM19.4 °F17.6 °F93 %29.71 in2.5 miSW (230°)4.6 mphClear
1:35 AM19.4 °F17.6 °F93 %29.71 in2.0 miSW (230°)5.8 mphClear
1:55 AM21.2 °F17.6 °F86 %29.70 in2.5 miWSW (240°)5.8 mphClear
2:15 AM19.4 °F17.6 °F93 %29.70 in3.0 miWSW (250°)5.8 mphMostly Cloudy
2:35 AM21.2 °F19.4 °F93 %29.69 in5.0 miWSW (250°)5.8 mphScattered Clouds
2:55 AM21.2 °F19.4 °F93 %29.69 in7.0 miWest (260°)5.8 mphMostly Cloudy
3:15 AM21.2 °F19.4 °F93 %29.69 in5.0 miWSW (250°)4.6 mphScattered Clouds
3:35 AM21.2 °F19.4 °F93 %29.68 in7.0 miWSW (240°)5.8 mphClear
3:55 AM19.4 °F17.6 °F93 %29.68 in7.0 miWSW (240°)5.8 mphScattered Clouds
4:15 AM21.2 °F17.6 °F86 %29.68 in7.0 miWest (260°)4.6 mphOvercast
4:35 AM21.2 °F19.4 °F93 %29.67 in7.0 miWSW (240°)5.8 mphOvercast
4:55 AM21.2 °F19.4 °F93 %29.67 in7.0 miWSW (250°)4.6 mphOvercast
5:15 AM21.2 °F19.4 °F93 %29.67 in7.0 miWest (260°)5.8 mphOvercast
5:35 AM21.2 °F19.4 °F93 %29.67 in7.0 miWest (270°)3.5 mphOvercast
5:55 AM21.2 °F19.4 °F93 %29.67 in7.0 miWest (270°)4.6 mphOvercast
6:15 AM21.2 °F19.4 °F93 %29.66 in7.0 miCalmOvercast
6:35 AM21.2 °F19.4 °F93 %29.66 in7.0 miWSW (250°)3.5 mphOvercast
6:55 AM21.2 °F19.4 °F93 %29.66 in7.0 miWest (260°)4.6 mphOvercast
7:15 AM21.2 °F19.4 °F93 %29.66 in5.0 miWSW (240°)3.5 mphOvercast
7:35 AM21.2 °F19.4 °F93 %29.66 in5.0 miWSW (250°)3.5 mphOvercast
7:55 AM21.2 °F19.4 °F93 %29.65 in5.0 miWest (260°)5.8 mphOvercast
8:15 AM21.2 °F19.4 °F93 %29.65 in5.0 miWest (260°)4.6 mph0.01 inOvercast
8:35 AM21.2 °F19.4 °F93 %29.65 in5.0 miWSW (240°)4.6 mph0.05 inOvercast
8:55 AM21.2 °F19.4 °F93 %29.64 in5.0 miSW (230°)4.6 mphOvercast
9:15 AM21.2 °F19.4 °F93 %29.65 in5.0 miWest (260°)6.9 mphOvercast
9:35 AM23.0 °F19.4 °F86 %29.65 in5.0 miWest (260°)6.9 mph0.19 inMostly Cloudy
9:55 AM23.0 °F19.4 °F86 %29.64 in5.0 miWest (270°)3.5 mph0.17 inOvercast
10:15 AM24.8 °F21.2 °F86 %29.65 in5.0 miWest (270°)3.5 mph0.01 inOvercast
10:35 AM24.8 °F21.2 °F86 %29.64 in7.0 miWest (260°)4.6 mph0.35 inOvercast
10:55 AM24.8 °F21.2 °F86 %29.64 in7.0 miSW (230°)3.5 mphOvercast
11:15 AM26.6 °F21.2 °F80 %29.63 in7.0 miCalmMostly Cloudy
11:35 AM26.6 °F21.2 °F80 %29.63 in7.0 miSW (220°)3.5 mphScattered Clouds
11:55 AM26.6 °F21.2 °F80 %29.63 in10.0 miSW (220°)5.8 mphMostly Cloudy
12:15 PM28.4 °F23.0 °F80 %29.63 in10.0 miSW (230°)5.8 mphOvercast
12:35 PM28.4 °F23.0 °F80 %29.62 in10.0 miSW (220°)5.8 mphOvercast
12:55 PM30.2 °F23.0 °F75 %29.62 in10.0 miSW (230°)4.6 mphOvercast
1:15 PM30.2 °F23.0 °F75 %29.62 in10.0 miSW (220°)5.8 mphOvercast
1:35 PM30.2 °F24.8 °F80 %29.62 in10.0 miSW (220°)6.9 mphOvercast
1:55 PM30.2 °F24.8 °F80 %29.62 in10.0 miSW (220°)8.1 mphMostly Cloudy
2:15 PM30.2 °F24.8 °F80 %29.62 in10.0 miSW (230°)8.1 mphOvercast
2:35 PM30.2 °F24.8 °F80 %29.61 in5.0 miSW (230°)8.1 mphSnowLight Snow
2:55 PM30.2 °F26.6 °F86 %29.62 in4.0 miSW (230°)6.9 mphSnowLight Snow
3:15 PM30.2 °F26.6 °F86 %29.62 in4.0 miSW (230°)9.2 mphSnowLight Snow
3:35 PM30.2 °F26.6 °F86 %29.61 in7.0 miWSW (240°)5.8 mphOvercast
3:55 PM30.2 °F26.6 °F86 %29.61 in5.0 miSW (230°)4.6 mphSnowLight Snow
4:15 PM30.2 °F26.6 °F86 %29.60 in10.0 miWSW (240°)4.6 mphOvercast
4:35 PM30.2 °F26.6 °F86 %29.61 in10.0 miWSW (240°)3.5 mphOvercast
4:55 PM32.0 °F28.4 °F87 %29.61 in7.0 miSW (230°)3.5 mphSnowLight Snow
5:15 PM32.0 °F26.6 °F80 %29.61 in7.0 miSW (230°)3.5 mphSnowLight Snow
5:35 PM32.0 °F26.6 °F80 %29.60 in10.0 miSSW (200°)4.6 mphOvercast
5:55 PM32.0 °F26.6 °F80 %29.60 in10.0 miCalmOvercast
6:15 PM30.2 °F26.6 °F86 %29.61 in10.0 miSouth (180°)3.5 mphOvercast
6:35 PM30.2 °F26.6 °F86 %29.61 in10.0 miSouth (180°)3.5 mphOvercast
6:55 PM32.0 °F26.6 °F80 %29.61 in5.0 miSouth (190°)4.6 mphSnowLight Snow
7:15 PM32.0 °F28.4 °F87 %29.61 in5.0 miSSW (210°)5.8 mphSnowLight Snow
7:35 PM32.0 °F28.4 °F87 %29.61 in7.0 miSW (220°)4.6 mphOvercast
7:55 PM32.0 °F26.6 °F80 %29.61 in4.0 miSW (230°)3.5 mphSnowLight Snow
8:15 PM32.0 °F28.4 °F87 %29.61 in4.0 miSW (220°)6.9 mphSnowLight Snow
8:35 PM30.2 °F28.4 °F93 %29.60 in4.0 miSW (230°)4.6 mphSnowLight Snow
8:55 PM30.2 °F28.4 °F93 %29.60 in2.5 miSW (220°)4.6 mphSnowLight Snow
9:15 PM30.2 °F28.4 °F93 %29.59 in3.0 miCalmSnowLight Snow
9:35 PM30.2 °F28.4 °F93 %29.59 in2.0 miCalmSnowLight Snow
9:55 PM30.2 °F28.4 °F93 %29.58 in2.0 miCalmSnowLight Snow
10:15 PM30.2 °F28.4 °F93 %29.58 in1.5 miCalmSnowLight Snow
10:35 PM30.2 °F28.4 °F93 %29.57 in1.5 miCalmSnowLight Snow
10:55 PM30.2 °F28.4 °F93 %29.57 in1.2 miCalmSnowLight Snow
11:15 PM30.2 °F28.4 °F93 %29.57 in1.8 miCalmSnowLight Snow
11:35 PM30.2 °F28.4 °F93 %29.56 in2.0 miCalm0.05 inSnowLight Snow
11:55 PM30.2 °F28.4 °F93 %29.56 in1.8 miESE (110°)3.5 mph0.12 inSnowLight Snow
Hourly data recorded from KMDZ, located miles away from Athens, Wisconsin







STORIES FROM OUR PARTNERS